Miscellaneous Local Product
Issued by NWS Hastings, NE

Home | Current Version | Previous Version | Graphics & Text | Print | Product List | Glossary On
Versions: 1 2 3 4 5 6 7 8 9 10 11 12 13 14 15 16 17 18 19 20 21 22 23 24 25 26 27 28 29 30 31 32 33 34 35 36 37 38 39 40 41 42 43 44 45 46 47 48 49 50
000
AXUS43 KGID 091302
MISGRI

GID CWA HOURLY WEATHER ROUNDUP
NATIONAL WEATHER SERVICE HASTINGS NE
700 AM CST FRI DEC 09 2016

NOTE: "FAIR" INDICATES FEW OR NO CLOUDS BELOW 12,000 FEET WITH NO
SIGNIFICANT WEATHER AND/OR OBSTRUCTIONS TO VISIBILITY.

...SOUTH CENTRAL NEBRASKA...

CITY           SKY/WX    TMP DP  RH WIND       PRES   REMARKS
GRAND ISLAND   CLOUDY    10   6  84 SE9       30.50F WCI  -3
HASTINGS       CLOUDY    12   4  70 SE9       30.51S WCI   0
KEARNEY        CLOUDY    10   3  72 SE7       30.46F WCI   0
ORD            CLOUDY     7   1  76 SE5       30.47S WCI  -2
YORK           CLOUDY     9   5  85 SE6       30.54F WCI  -1
AURORA         CLOUDY     8   4  80 SE7       30.51F WCI  -3
LEXINGTON      CLOUDY    11   5  78 SE6       30.42F WCI   1
HOLDREGE       CLOUDY    13   8  78 SE3       30.44F
HEBRON         CLOUDY    12   7  83 E3        30.57S

...NEBRASKA PANHANDLE...

CITY           SKY/WX    TMP DP  RH WIND       PRES   REMARKS
CHADRON        CLOUDY     6   0  76 N10       30.23R WCI  -9
ALLIANCE       CLOUDY    11   4  73 S12       30.13S WCI  -3
SCOTTSBLUFF    CLOUDY    16   8  71 SE10      30.10F WCI   4
SIDNEY         CLOUDY    13   6  74 S14       30.11F WCI  -2

...WESTERN AND NORTH CENTRAL NEBRASKA...

CITY           SKY/WX    TMP DP  RH WIND       PRES   REMARKS
VALENTINE      CLOUDY     6   0  76 E8        30.38F WCI  -7
AINSWORTH      CLOUDY     7   3  84 SE7       30.39F WCI  -5
ONEILL         CLOUDY     6   3  87 SE5       30.49R WCI  -3
BROKEN BOW     CLOUDY     9   3  77 SE8       30.40S WCI  -3
IMPERIAL       CLOUDY    13   5  70 S13       30.27F WCI  -2
NORTH PLATTE   CLOUDY    13   5  70 SE9       30.34F WCI   1
MCCOOK         CLOUDY    10   5  80 NE3       30.39R

...EASTERN NEBRASKA...

CITY           SKY/WX    TMP DP  RH WIND       PRES   REMARKS
NORFOLK        CLOUDY     4   0  83 CALM      30.54F
SO SIOUX CITY  CLOUDY     5   0  79 W6        30.61S WCI  -6
TEKAMAH        CLOUDY     7   2  80 NW3       30.62S
COLUMBUS       CLOUDY     7   0  72 CALM      30.56F
ALBION         CLOUDY     6   1  81 SE5       30.53S WCI  -3
OMAHA EPPLEY   MOCLDY     8   2  76 N3        30.63S
OFFUTT AFB     CLOUDY     7   4  89 NW3       30.62S
MILLARD        CLOUDY    10   5  79 CALM      30.62S
LINCOLN        CLOUDY     5   1  83 N3        30.61F
NEBRASKA CITY  CLOUDY     8   1  74 CALM      30.61S
BEATRICE       CLOUDY     6   2  85 CALM      30.59S
FALLS CITY     CLEAR      6   3  87 CALM      30.62F

...NORTHERN KANSAS...

CITY           SKY/WX    TMP DP  RH WIND       PRES   REMARKS
GOODLAND       CLOUDY     8   5  87 SE10      30.24F WCI  -6
HILL CITY      CLOUDY    18   9  68 S9        30.45R WCI   7
NORTON         CLOUDY    16   7  67 SE7       30.41F WCI   6
PHILLIPSBURG   CLOUDY    12   9  85 E6        30.49S WCI   3
SMITH CENTER   CLOUDY    12   9  85 SE5       30.53R WCI   4
BELOIT         CLOUDY    14   9  79 SE6       30.55S WCI   5
HAYS           CLOUDY    18  11  74 SE9       30.49S WCI   7
RUSSELL        CLOUDY    17  11  77 SE14      30.49F WCI   3
CONCORDIA      CLOUDY    16  11  80 SE6       30.56F WCI   7
SALINA         CLOUDY    15  10  80 SE7       30.59F WCI   5
TOPEKA         CLOUDY    14   9  80 CALM      30.65S



USA.gov is the U.S. government's official web portal to all federal, state and local government web resources and services.